Track NAVSTAR 60 (USA 196) now! NAVSTAR 60 (USA 196) is classified as:
1 32260U 07047A 25183.22382032 -.00000042 00000-0 00000-0 0 9999 2 32260 53.8379 94.5158 0162064 81.8774 279.9706 2.00571530129797